Oscoda, MI

3:15 AM EST on December 03, 2016 (GMT -0500)
Oscoda-Wurtsmith

Weather History for KOSC - June, 2013

Change the Weather History Date:

Tuesday, June 25, 2013

  Actual Average Record
Temperature  
Mean Temperature 74 °F -  
Max Temperature 83 °F 76 °F 95 °F (2003)
Min Temperature 65 °F 55 °F 35 °F (2004)
Cooling Degree Days 9    
Growing Degree Days 24 (Base 50)    
Moisture  
Dew Point 64 °F    
Average Humidity 72    
Maximum Humidity 90    
Minimum Humidity 49    
Precipitation  
Precipitation 0.00 in - - ()
Sea Level Pressure  
Sea Level Pressure 29.84 in    
Wind  
Wind Speed 5 mph (WSW)    
Max Wind Speed 14 mph    
Max Gust Speed 21 mph    
Visibility 10 miles    
Events Rain    
Averages and records for this station are not official NWS values.
T = Trace of Precipitation, MM = Missing Value Source: NWS Daily Summary

Daily Weather History Graph

Daily Weather History Graph

Search for Another Location

Airport or City:

Trip Planner

Search our weather history database for the weather conditions in past years. The results will help you decide how hot, cold, wet, or windy it might be!

Date:

Astronomy

Jun. 25, 2013 Rise Set
Actual Time 5:50 AM EDT 9:22 PM EDT
Civil Twilight 5:13 AM EDT 9:59 PM EDT
Nautical Twilight 4:24 AM EDT 10:47 PM EDT
Astronomical Twilight 3:21 AM EDT 11:50 PM EDT
Moon 10:58 PM EDT (6/25) 8:35 AM EDT (6/25)
Length of Visible Light 16h 45m
Length of Day
15h 32m
Waning Gibbous, 93% of the Moon is Illuminated
Jun 25
Waning Gibbous
Jun 30
Last Quarter
Jul 8
New
Jul 15
First Quarter
Jul 22
Full

Hourly Weather History & Observations

Time (EDT) Temp. Heat Index Dew Point Humidity Pressure Visibility Wind Dir Wind Speed Gust Speed Precip Events Conditions
12:13 AM 71.8 °F - 64.2 °F 77% 29.88 in 10.0 mi Calm Calm - N/A   Clear
12:34 AM 70.2 °F - 63.7 °F 80% 29.88 in 10.0 mi SW 4.6 mph - N/A   Clear
12:54 AM 67.6 °F - 63.1 °F 85% 29.88 in 10.0 mi SW 3.5 mph - N/A   Clear
1:13 AM 69.8 °F - 62.8 °F 78% 29.88 in 10.0 mi SW 4.6 mph - N/A   Clear
1:34 AM 70.2 °F - 62.8 °F 77% 29.88 in 10.0 mi SSW 3.5 mph - N/A   Clear
1:54 AM 70.3 °F - 62.2 °F 75% 29.87 in 10.0 mi SW 3.5 mph - N/A   Clear
2:13 AM 68.4 °F - 62.1 °F 80% 29.87 in 10.0 mi WSW 3.5 mph - N/A   Scattered Clouds
2:34 AM 69.4 °F - 61.5 °F 76% 29.87 in 10.0 mi WSW 4.6 mph - N/A   Clear
2:54 AM 68.4 °F - 61.2 °F 78% 29.87 in 10.0 mi SW 4.6 mph - N/A   Clear
3:13 AM 67.8 °F - 60.8 °F 78% 29.86 in 10.0 mi WSW 4.6 mph - N/A   Clear
3:34 AM 67.5 °F - 60.8 °F 79% 29.86 in 10.0 mi Calm Calm - N/A   Clear
3:54 AM 68.4 °F - 60.8 °F 77% 29.85 in 10.0 mi South 3.5 mph - N/A   Clear
4:13 AM 68.0 °F - 61.0 °F 78% 29.84 in 10.0 mi Calm Calm - N/A   Clear
4:34 AM 67.1 °F - 61.0 °F 81% 29.85 in 10.0 mi SSW 4.6 mph - N/A   Clear
4:54 AM 67.3 °F - 61.0 °F 80% 29.84 in 10.0 mi South 4.6 mph - N/A   Clear
5:13 AM 67.1 °F - 60.8 °F 80% 29.85 in 10.0 mi SSW 4.6 mph - N/A   Clear
5:34 AM 65.7 °F - 60.8 °F 84% 29.85 in 10.0 mi SW 3.5 mph - N/A   Clear
5:53 AM 66.0 °F - 61.2 °F 84% 29.84 in 10.0 mi SW 3.5 mph - N/A   Clear
6:14 AM 66.2 °F - 61.2 °F 84% 29.86 in 10.0 mi SW 4.6 mph - N/A   Clear
6:34 AM 66.7 °F - 61.7 °F 84% 29.86 in 10.0 mi SW 4.6 mph - N/A   Clear
6:53 AM 68.0 °F - 62.1 °F 81% 29.86 in 10.0 mi Calm Calm - N/A   Scattered Clouds
7:14 AM 68.0 °F - 62.2 °F 82% 29.87 in 7.0 mi SW 4.6 mph - N/A   Clear
7:34 AM 68.4 °F - 62.1 °F 80% 29.87 in 10.0 mi SSW 3.5 mph - N/A   Clear
7:53 AM 68.4 °F - 62.1 °F 80% 29.87 in 10.0 mi South 6.9 mph - N/A   Clear
8:14 AM 68.4 °F - 63.0 °F 83% 29.88 in 10.0 mi SSW 6.9 mph - N/A Rain Light Rain
8:34 AM 67.5 °F - 63.7 °F 88% 29.88 in 10.0 mi SSW 6.9 mph - N/A   Overcast
8:53 AM 68.0 °F - 63.9 °F 87% 29.88 in 10.0 mi SSW 8.1 mph - N/A Rain Light Rain
9:14 AM 68.2 °F - 64.8 °F 89% 29.88 in 10.0 mi SW 6.9 mph - N/A Rain Light Rain
9:34 AM 69.1 °F - 66.0 °F 90% 29.87 in 10.0 mi SSW 5.8 mph - N/A   Light Drizzle
9:53 AM 71.1 °F - 66.4 °F 85% 29.86 in 10.0 mi SW 8.1 mph - N/A   Light Drizzle
10:14 AM 72.9 °F - 66.2 °F 80% 29.85 in 10.0 mi WSW 6.9 mph - N/A   Clear
10:34 AM 72.7 °F - 66.2 °F 80% 29.85 in 10.0 mi WSW 5.8 mph - N/A   Mostly Cloudy
10:53 AM 73.8 °F - 66.6 °F 78% 29.85 in 10.0 mi West 4.6 mph - N/A   Overcast
11:14 AM 75.6 °F - 66.9 °F 74% 29.86 in 10.0 mi WSW 3.5 mph - N/A   Mostly Cloudy
11:34 AM 77.0 °F - 66.6 °F 70% 29.86 in 10.0 mi West 9.2 mph - N/A   Scattered Clouds
11:53 AM 77.4 °F - 66.6 °F 69% 29.86 in 10.0 mi West 6.9 mph - N/A   Mostly Cloudy
12:14 PM 78.8 °F - 67.3 °F 68% 29.85 in 10.0 mi SW 8.1 mph - N/A   Overcast
12:34 PM 79.9 °F - 66.7 °F 64% 29.84 in 10.0 mi WSW 9.2 mph - N/A   Mostly Cloudy
12:54 PM 81.7 °F 83.0 °F 63.7 °F 54% 29.85 in 10.0 mi West 13.8 mph 20.7 mph N/A   Mostly Cloudy
1:14 PM 80.2 °F 81.9 °F 64.4 °F 58% 29.84 in 10.0 mi West 10.4 mph 16.1 mph N/A   Overcast
1:34 PM 80.8 °F 82.4 °F 64.2 °F 57% 29.84 in 10.0 mi West 12.7 mph 18.4 mph N/A   Overcast
1:53 PM 77.2 °F - 67.3 °F 71% 29.84 in 7.0 mi SW 9.2 mph 16.1 mph N/A Rain Rain
2:14 PM 78.8 °F - 66.0 °F 65% 29.83 in 10.0 mi SW 11.5 mph 16.1 mph N/A   Overcast
2:34 PM 80.8 °F 82.8 °F 65.8 °F 60% 29.82 in 10.0 mi WSW 12.7 mph - N/A   Mostly Cloudy
2:54 PM 82.0 °F 83.6 °F 64.2 °F 55% 29.83 in 10.0 mi West 11.5 mph - N/A   Mostly Cloudy
3:14 PM 81.5 °F 82.2 °F 61.3 °F 50% 29.82 in 10.0 mi West 11.5 mph 17.3 mph N/A   Mostly Cloudy
3:33 PM 82.8 °F 83.6 °F 62.2 °F 50% 29.82 in 10.0 mi West 11.5 mph - N/A   Scattered Clouds
3:54 PM 83.3 °F 84.1 °F 62.4 °F 49% 29.81 in 10.0 mi West 6.9 mph - N/A   Clear
4:14 PM 82.6 °F 83.4 °F 62.4 °F 50% 29.81 in 10.0 mi West 10.4 mph - N/A   Scattered Clouds
4:34 PM 82.4 °F 83.7 °F 63.5 °F 53% 29.80 in 10.0 mi West 10.4 mph - N/A   Mostly Cloudy
4:54 PM 82.9 °F 84.0 °F 63.3 °F 51% 29.80 in 10.0 mi West 5.8 mph - N/A   Scattered Clouds
5:14 PM 82.6 °F 83.8 °F 63.5 °F 52% 29.80 in 10.0 mi WNW 9.2 mph - N/A   Overcast
5:33 PM 78.6 °F - 64.6 °F 62% 29.81 in 10.0 mi ESE 6.9 mph - N/A   Overcast
5:54 PM 75.7 °F - 64.4 °F 68% 29.81 in 10.0 mi East 5.8 mph - N/A   Overcast
6:14 PM 77.4 °F - 64.4 °F 64% 29.81 in 10.0 mi ENE 8.1 mph - N/A   Overcast
6:33 PM 77.4 °F - 64.4 °F 64% 29.81 in 10.0 mi ENE 5.8 mph - N/A   Mostly Cloudy
6:54 PM 78.1 °F - 64.4 °F 63% 29.81 in 10.0 mi Calm Calm - N/A   Mostly Cloudy
7:14 PM 79.7 °F - 64.6 °F 60% 29.80 in 10.0 mi Calm Calm - N/A   Mostly Cloudy
7:33 PM 79.7 °F - 65.1 °F 61% 29.80 in 10.0 mi Calm Calm - N/A   Scattered Clouds
7:54 PM 78.1 °F - 66.2 °F 67% 29.80 in 10.0 mi North 4.6 mph - N/A   Mostly Cloudy
8:14 PM 78.4 °F - 65.7 °F 65% 29.80 in 10.0 mi WNW 3.5 mph - N/A   Mostly Cloudy
8:33 PM 79.0 °F - 65.8 °F 64% 29.80 in 10.0 mi WSW 4.6 mph - N/A   Scattered Clouds
8:54 PM 78.1 °F - 65.5 °F 65% 29.81 in 10.0 mi WSW 6.9 mph - N/A   Clear
9:14 PM 76.5 °F - 65.3 °F 68% 29.81 in 10.0 mi West 4.6 mph - N/A   Clear
9:33 PM 75.2 °F - 65.3 °F 71% 29.80 in 5.0 mi West 3.5 mph - N/A   Haze
9:54 PM 73.8 °F - 65.3 °F 75% 29.80 in 2.5 mi Calm Calm - N/A   Haze
10:14 PM 73.9 °F - 65.3 °F 74% 29.82 in 10.0 mi Calm Calm - N/A   Clear
10:33 PM 73.4 °F - 65.3 °F 76% 29.82 in 10.0 mi NW 3.5 mph - N/A   Clear
10:54 PM 71.6 °F - 65.3 °F 80% 29.82 in 10.0 mi NW 4.6 mph - N/A   Clear
11:14 PM 70.9 °F - 64.9 °F 81% 29.82 in 10.0 mi Calm Calm - N/A   Clear
11:33 PM 69.4 °F - 64.6 °F 84% 29.82 in 10.0 mi NW 3.5 mph - N/A   Clear
11:54 PM 69.8 °F - 64.9 °F 84% 29.82 in 10.0 mi NNW 3.5 mph - N/A   Clear